period_start,C,m1,H,J0,J1,J2,J3,J4,J5,JA,JB,JC,JD,JJ,JK,JN,#
2016-01-13 00:03:11,-0.00,3.46,0.00,23.73,27.61,31.41,14.90,50.48,1039.11,2028.99,2213.00,2395.88,2604.32,600.26,607.97,52.93,0000 0000 0000 0000 000000
2016-01-13 00:08:12,0.00,3.46,0.00,23.76,27.60,31.44,14.84,50.44,1039.14,2028.98,2212.93,2395.94,2604.19,600.02,607.70,52.98,0000 0000 0000 0000 000000
2016-01-13 00:13:14,0.02,3.46,0.00,23.69,27.60,31.45,14.83,50.48,1039.48,2028.99,2212.25,2395.95,2604.14,599.84,607.85,53.03,0000 0000 0000 0000 000000
2016-01-13 00:18:15,0.00,3.46,0.00,23.60,27.60,31.43,14.90,50.58,1039.53,2028.99,2212.00,2395.98,2604.11,599.86,607.90,53.08,0000 0000 0000 0000 000000
2016-01-13 00:23:17,0.00,3.46,0.00,23.58,27.60,31.39,14.85,50.52,1039.54,2028.99,2211.97,2395.97,2604.08,599.89,608.30,53.13,0000 0000 0000 0000 000000
2016-01-13 00:28:18,0.02,3.46,0.00,23.49,27.58,31.33,14.84,50.46,1039.57,2028.99,2211.40,2395.98,2604.03,599.85,608.32,53.18,0000 0000 0000 0000 000000
2016-01-13 00:33:19,0.00,3.46,0.00,23.37,27.57,31.27,14.91,50.33,1039.57,2028.99,2211.01,2395.98,2604.01,600.03,608.65,53.23,0000 0000 0000 0000 000000
2016-01-13 00:38:21,0.00,3.46,0.00,23.29,27.56,31.25,14.86,50.26,1039.58,2028.99,2210.99,2395.99,2604.02,599.86,608.71,53.28,0000 0000 0000 0000 000000
2016-01-13 00:43:22,0.01,3.46,0.00,23.15,27.54,31.25,14.94,50.47,1039.58,2028.99,2210.63,2395.99,2604.11,600.11,609.30,53.33,0000 0000 0000 0000 000000
2016-01-13 00:48:24,0.01,3.46,0.00,22.99,27.51,31.17,14.98,50.34,1039.60,2028.99,2210.09,2395.99,2604.15,600.24,609.73,53.38,0000 0000 0000 0000 000000
2016-01-13 00:53:25,-0.01,3.46,0.00,22.89,27.48,31.15,14.92,50.35,1039.66,2028.99,2210.02,2396.04,2604.56,599.94,609.66,53.43,0000 0000 0000 0000 000000
2016-01-13 00:58:26,-0.01,3.46,0.00,22.81,27.45,31.06,14.86,50.41,1039.96,2029.00,2209.96,2396.24,2604.92,599.57,609.64,53.48,0000 0000 0000 0000 000000
2016-01-13 01:03:27,0.01,3.46,0.00,22.74,27.41,31.02,14.93,50.39,1040.04,2029.15,2209.47,2396.88,2604.99,600.03,610.30,53.53,0000 0000 0000 0000 000000
2016-01-13 01:08:28,0.08,3.46,0.00,22.69,27.36,30.95,14.95,50.49,1040.05,2029.84,2209.03,2396.99,2605.01,599.92,610.36,53.58,0000 0000 0000 0000 000000
2016-01-13 01:13:29,0.00,3.47,0.00,22.63,27.31,30.92,14.92,50.20,1040.05,2029.99,2209.00,2397.01,2605.16,600.04,610.63,53.63,0000 0000 0000 0000 000000
2016-01-13 01:18:30,-0.02,3.46,0.00,22.59,27.26,30.80,14.96,50.36,1040.06,2030.00,2208.97,2397.17,2605.62,599.94,610.52,53.68,0000 0000 0000 0000 000000
2016-01-13 01:23:32,-0.01,3.46,0.00,22.56,27.21,30.72,14.99,50.38,1040.07,2030.03,2208.63,2397.67,2605.95,599.98,610.60,53.73,0000 0000 0000 0000 000000
2016-01-13 01:28:33,0.24,3.47,0.00,22.54,27.17,30.72,15.04,50.38,1040.14,2030.29,2206.74,2396.54,2604.56,600.38,611.12,53.79,0000 0000 0000 0000 000000
2016-01-13 01:33:34,0.87,3.50,0.00,22.53,27.12,30.71,15.03,50.52,1040.45,2030.83,2198.24,2390.13,2597.62,600.27,611.21,53.84,0000 0000 0000 0000 000000
2016-01-13 01:38:35,1.11,3.55,0.00,22.49,27.07,30.64,14.90,50.33,1040.52,2030.99,2184.84,2380.04,2586.75,599.98,610.96,53.89,0000 0000 0000 0000 000000
2016-01-13 01:43:36,0.47,3.59,0.00,22.47,27.02,30.60,15.03,50.29,1040.54,2030.99,2176.64,2374.24,2580.43,599.98,611.19,53.94,0000 0000 0000 0000 000000
2016-01-13 01:48:37,0.14,3.60,0.00,22.45,26.98,30.53,14.94,50.24,1040.54,2031.01,2173.94,2372.61,2578.65,599.92,611.11,53.99,0000 0000 0000 0000 000000
2016-01-13 01:53:38,0.15,3.61,0.00,22.44,26.94,30.51,14.93,50.30,1040.54,2031.21,2172.08,2371.64,2577.56,599.90,611.07,54.04,0000 0000 0000 0000 000000
2016-01-13 01:58:40,0.14,3.62,0.43,22.40,26.89,30.48,15.06,50.46,1040.54,2031.81,2170.42,2370.97,2576.61,600.21,611.53,54.09,0000 0000 0000 0000 000000
2016-01-13 02:03:41,0.06,3.62,1.00,22.36,26.85,30.45,14.96,50.26,1040.56,2031.95,2169.55,2370.59,2576.04,600.02,611.38,54.14,0000 0000 0000 0000 000000
2016-01-13 02:08:42,0.03,3.63,1.00,22.34,26.80,30.43,14.96,50.28,1040.59,2031.99,2168.88,2370.08,2575.99,600.03,611.48,54.19,0000 0000 0000 0000 000000
2016-01-13 02:13:43,0.02,3.63,1.00,22.33,26.76,30.39,15.00,50.35,1040.65,2031.99,2168.06,2370.02,2575.97,599.95,611.43,54.24,0000 0000 0000 0000 000000
2016-01-13 02:18:45,0.00,3.63,1.00,22.33,26.72,30.36,14.98,50.17,1040.71,2032.00,2167.88,2370.00,2575.97,599.86,611.43,54.29,0000 0000 0000 0000 000000
2016-01-13 02:23:46,0.03,3.63,1.00,22.29,26.68,30.33,14.95,50.35,1040.71,2032.03,2167.08,2370.00,2575.89,600.21,611.67,54.34,0000 0000 0000 0000 000000
2016-01-13 02:28:47,0.06,3.63,0.57,22.25,26.64,30.27,14.93,50.11,1040.96,2032.16,2166.22,2370.00,2575.28,599.62,611.46,54.39,0000 0000 0000 0000 000000
2016-01-13 02:33:49,0.08,3.64,0.00,22.22,26.61,30.23,15.05,50.38,1041.03,2032.78,2165.96,2370.00,2575.09,599.93,611.96,54.44,0000 0000 0000 0000 000000
2016-01-13 02:38:50,0.03,3.64,0.00,22.18,26.58,30.23,14.89,50.31,1041.03,2032.98,2165.17,2370.00,2575.05,599.78,611.97,54.49,0000 0000 0000 0000 000000
2016-01-13 02:43:52,0.03,3.64,0.00,22.16,26.56,30.22,14.96,50.13,1041.04,2032.99,2164.46,2369.94,2575.01,600.09,612.11,54.54,0000 0000 0000 0000 000000
2016-01-13 02:48:53,0.07,3.64,0.00,22.13,26.53,30.19,14.92,50.34,1041.06,2032.99,2163.63,2369.32,2574.72,599.77,611.93,54.59,0000 0000 0000 0000 000000
2016-01-13 02:53:54,0.12,3.65,0.00,22.12,26.51,30.18,15.01,50.37,1041.12,2033.00,2162.11,2368.54,2573.65,600.16,612.41,54.64,0000 0000 0000 0000 000000
2016-01-13 02:58:56,0.14,3.66,0.00,22.12,26.48,30.12,15.00,50.28,1041.33,2033.02,2159.94,2367.27,2572.26,600.11,612.44,54.70,0000 0000 0000 0000 000000
2016-01-13 03:03:57,0.12,3.66,0.00,22.08,26.46,30.13,15.06,50.52,1041.51,2033.05,2158.08,2366.32,2571.08,599.93,612.42,54.75,0000 0000 0000 0000 000000
2016-01-13 03:08:58,0.14,3.67,0.00,22.06,26.44,30.10,14.93,50.23,1041.51,2033.33,2156.50,2365.48,2570.14,600.00,612.58,54.80,0000 0000 0000 0000 000000
2016-01-13 03:13:59,0.08,3.68,0.00,22.04,26.42,30.06,14.95,50.21,1041.52,2033.53,2155.07,2364.90,2569.32,599.96,612.58,54.85,0000 0000 0000 0000 000000
2016-01-13 03:19:01,0.09,3.68,0.00,22.01,26.40,30.04,14.94,50.29,1041.52,2033.89,2154.09,2364.27,2568.99,599.84,612.49,54.90,0000 0000 0000 0000 000000
2016-01-13 03:24:02,0.00,3.68,0.00,21.97,26.38,30.02,14.94,50.40,1041.54,2033.90,2153.99,2364.04,2568.94,599.71,612.55,54.95,0000 0000 0000 0000 000000
2016-01-13 03:29:03,0.01,3.68,0.00,21.95,26.37,30.02,15.00,50.48,1041.56,2033.95,2153.80,2364.05,2568.92,599.91,612.74,55.00,0000 0000 0000 0000 000000
2016-01-13 03:34:04,0.01,3.68,0.00,21.94,26.35,30.00,15.04,50.53,1041.63,2033.97,2153.10,2364.09,2568.95,600.08,612.77,55.05,0000 0000 0000 0000 000000
2016-01-13 03:39:06,-0.00,3.68,0.00,21.95,26.33,29.95,15.01,50.52,1041.78,2033.99,2153.00,2364.20,2568.96,600.07,613.08,55.10,0000 0000 0000 0000 000000
2016-01-13 03:44:07,-0.00,3.68,0.00,21.93,26.32,29.97,15.10,50.60,1041.92,2033.99,2152.94,2364.34,2568.93,600.04,613.12,55.15,0000 0000 0000 0000 000000
2016-01-13 03:49:08,0.01,3.68,0.00,21.90,26.30,29.96,15.07,50.60,1042.01,2033.99,2152.43,2364.61,2568.94,600.46,613.66,55.20,0000 0000 0000 0000 000000
2016-01-13 03:54:10,-0.00,3.68,0.00,21.89,26.30,29.97,14.97,50.60,1042.01,2033.99,2152.05,2364.87,2568.97,599.87,613.12,55.25,0000 0000 0000 0000 000000
2016-01-13 03:59:11,0.00,3.68,0.00,21.87,26.27,29.92,14.94,50.46,1042.01,2034.00,2152.00,2364.98,2568.98,599.98,613.40,55.30,0000 0000 0000 0000 000000
2016-01-13 04:04:12,0.01,3.68,0.00,21.84,26.27,29.88,15.09,50.72,1042.02,2034.00,2151.80,2364.97,2568.99,600.23,613.57,55.35,0000 0000 0000 0000 000000
2016-01-13 04:09:13,0.02,3.69,0.00,21.82,26.25,29.90,14.99,50.49,1042.03,2034.01,2151.10,2364.98,2568.98,599.61,613.01,55.40,0000 0000 0000 0000 000000
2016-01-13 04:14:15,0.00,3.69,0.00,21.82,26.24,29.90,15.03,50.57,1042.03,2034.02,2151.00,2364.97,2568.98,600.03,613.35,55.45,0000 0000 0000 0000 000000
2016-01-13 04:19:16,0.01,3.69,0.00,21.80,26.22,29.86,15.03,50.61,1042.08,2034.04,2150.75,2364.97,2568.97,599.88,613.29,55.50,0000 0000 0000 0000 000000
2016-01-13 04:24:17,0.02,3.69,0.00,21.78,26.21,29.85,15.04,50.92,1042.34,2034.08,2150.05,2364.99,2568.98,600.26,613.90,55.55,0000 0000 0000 0000 000000
2016-01-13 04:29:18,0.01,3.69,0.00,21.76,26.20,29.84,15.00,50.70,1042.11,2034.13,2150.00,2364.99,2568.98,600.17,613.80,55.60,0000 0000 0000 0000 000000
2016-01-13 04:34:20,0.02,3.69,0.00,21.72,26.19,29.85,15.03,50.63,1042.18,2034.28,2149.98,2364.99,2568.98,599.94,613.64,55.66,0000 0000 0000 0000 000000
2016-01-13 04:39:21,0.03,3.69,0.00,21.72,26.17,29.81,15.07,50.83,1042.27,2034.36,2149.64,2364.99,2568.98,600.44,614.15,55.71,0000 0000 0000 0000 000000
2016-01-13 04:44:22,0.03,3.69,0.00,21.72,26.17,29.74,15.08,50.75,1042.41,2034.63,2149.07,2364.99,2568.97,599.96,613.73,55.76,0000 0000 0000 0000 000000
2016-01-13 04:49:24,0.02,3.69,0.00,21.69,26.15,29.76,15.00,50.60,1042.41,2034.81,2148.99,2364.99,2568.92,599.91,613.81,55.81,0000 0000 0000 0000 000000
2016-01-13 04:54:25,0.03,3.69,0.00,21.67,26.14,29.75,15.16,50.63,1042.50,2034.85,2148.57,2364.99,2568.77,600.44,614.34,55.86,0000 0000 0000 0000 000000
2016-01-13 04:59:26,0.03,3.70,0.00,21.65,26.12,29.72,15.07,50.46,1042.50,2034.94,2148.03,2364.99,2568.34,600.55,614.57,55.91,0000 0000 0000 0000 000000
2016-01-13 05:04:27,0.01,3.70,0.00,21.64,26.11,29.78,15.12,50.64,1042.50,2034.95,2147.85,2364.99,2568.07,600.28,614.31,55.96,0000 0000 0000 0000 000000
2016-01-13 05:09:29,0.02,3.70,0.00,21.63,26.10,29.74,15.03,50.56,1042.50,2034.96,2147.06,2364.97,2568.00,599.98,614.19,56.01,0000 0000 0000 0000 000000
2016-01-13 05:14:30,0.01,3.70,0.00,21.63,26.07,29.71,15.10,50.62,1042.52,2034.98,2146.93,2364.79,2568.00,599.99,614.08,56.06,0000 0000 0000 0000 000000
2016-01-13 05:19:32,0.05,3.70,0.00,21.58,26.05,29.71,14.98,50.44,1042.67,2034.99,2146.15,2364.29,2567.92,599.95,614.15,56.11,0000 0000 0000 0000 000000
2016-01-13 05:24:33,0.05,3.70,0.00,21.56,26.04,29.68,14.99,50.26,1042.88,2034.98,2145.53,2364.01,2567.26,600.04,614.62,56.16,0000 0000 0000 0000 000000
2016-01-13 05:29:34,0.00,3.70,0.00,21.56,26.02,29.66,15.08,50.61,1042.93,2034.99,2144.94,2364.00,2567.01,600.06,614.53,56.21,0000 0000 0000 0000 000000
2016-01-13 05:34:36,0.03,3.71,0.00,21.29,25.99,29.70,15.09,50.68,1042.98,2034.99,2144.08,2363.93,2566.98,600.06,615.13,56.26,0000 0000 0000 0000 000000
2016-01-13 05:39:37,0.07,3.71,0.00,20.89,25.95,29.73,15.05,50.65,1042.98,2034.99,2143.16,2363.38,2566.67,599.87,615.73,56.31,0000 0000 0000 0000 000000
2016-01-13 06:45:01,-3333.30,0.00,0.00,17.58,25.27,22.22,13.26,42.22,1043.46,1839.21,3235.38,2860.02,3235.93,527.88,548.40,0.00,0000 0000 0000 0000 000000
2016-01-13 06:50:02,0.03,0.01,0.00,17.54,24.79,23.21,15.13,47.77,1043.71,2041.59,3576.65,3166.76,3583.78,599.62,623.01,0.06,0000 0000 0000 0000 000000
2016-01-13 06:55:04,0.11,0.03,0.00,17.52,24.35,23.67,15.06,47.51,1043.95,2042.26,3565.95,3161.11,3577.64,599.77,623.37,0.11,0000 0000 0000 0000 000000
2016-01-13 07:00:05,0.19,0.05,0.00,17.54,23.97,23.91,15.10,47.53,1043.97,2043.35,3558.30,3157.33,3573.24,599.81,623.45,0.16,0000 0000 0000 0000 000000
2016-01-13 07:05:07,0.24,0.07,0.00,17.59,23.65,24.00,15.15,47.42,1044.06,2044.41,3553.05,3154.96,3570.23,600.28,623.72,0.21,0000 0000 0000 0000 000000
2016-01-13 07:10:09,0.21,0.08,0.00,17.65,23.38,24.23,15.15,47.57,1044.24,2045.47,3549.81,3154.01,3568.68,600.09,623.60,0.26,0000 0000 0000 0000 000000
2016-01-13 07:15:11,0.19,0.09,0.00,17.70,23.16,24.58,15.14,47.52,1044.38,2046.47,3546.67,3153.12,3567.48,599.97,623.46,0.31,0000 0000 0000 0000 000000
2016-01-13 07:20:12,0.12,0.09,0.00,17.77,22.97,24.89,15.17,47.44,1044.45,2047.10,3543.75,3152.34,3566.09,599.97,623.44,0.36,0000 0000 0000 0000 000000
2016-01-13 07:25:14,0.18,0.10,0.00,17.85,22.81,25.18,15.09,47.25,1044.45,2047.96,3540.49,3151.13,3564.47,599.91,623.05,0.41,0000 0000 0000 0000 000000
2016-01-13 07:30:16,0.20,0.11,0.00,17.92,22.69,25.23,15.21,47.48,1044.51,2048.85,3537.06,3149.79,3562.60,600.37,623.24,0.46,0000 0000 0000 0000 000000
2016-01-13 07:35:18,0.18,0.12,0.00,17.98,22.58,25.26,15.15,47.46,1044.69,2049.39,3533.67,3148.40,3560.71,599.98,623.04,0.51,0000 0000 0000 0000 000000
2016-01-13 07:40:20,0.12,0.13,0.00,18.03,22.50,25.28,15.14,47.22,1044.87,2049.99,3530.69,3147.06,3558.80,600.10,623.11,0.56,0000 0000 0000 0000 000000
2016-01-13 07:45:22,0.17,0.14,0.00,18.09,22.43,25.38,15.22,47.25,1044.90,2050.35,3527.51,3145.58,3556.64,600.35,623.38,0.61,0000 0000 0000 0000 000000
2016-01-13 07:50:24,0.17,0.15,0.00,18.14,22.38,25.57,15.16,47.36,1044.94,2050.95,3523.71,3143.78,3554.28,599.72,622.60,0.66,0000 0000 0000 0000 000000
2016-01-13 07:55:26,0.14,0.15,0.00,18.20,22.34,25.66,15.26,47.34,1044.94,2051.01,3520.01,3142.10,3551.99,600.16,622.94,0.71,0000 0000 0000 0000 000000
2016-01-13 08:00:27,0.21,0.16,0.00,18.22,22.30,25.75,15.14,47.23,1045.00,2051.33,3515.69,3139.78,3549.11,599.64,622.35,0.76,0000 0000 0000 0000 000000
2016-01-13 08:05:29,0.22,0.18,0.00,18.27,22.28,25.83,15.15,47.20,1045.23,2051.94,3510.82,3137.20,3545.85,599.90,622.70,0.81,0000 0000 0000 0000 000000
2016-01-13 08:10:31,0.14,0.18,0.00,18.34,22.26,25.85,15.23,47.30,1045.38,2051.99,3506.77,3135.26,3543.14,599.94,622.62,0.86,0000 0000 0000 0000 000000
2016-01-13 08:15:33,0.13,0.19,0.00,18.39,22.24,25.87,15.17,47.31,1045.43,2051.99,3503.17,3133.68,3540.72,600.11,622.74,0.91,0000 0000 0000 0000 000000
2016-01-13 08:20:35,0.13,0.20,0.00,18.42,22.24,25.90,15.14,47.08,1045.44,2051.99,3499.81,3132.02,3538.41,600.12,622.76,0.96,0000 0000 0000 0000 000000
2016-01-13 08:25:37,0.18,0.21,0.00,18.43,22.24,25.89,15.11,47.13,1045.44,2052.01,3495.61,3129.76,3535.48,599.90,622.52,1.01,0000 0000 0000 0000 000000
2016-01-13 08:30:38,0.21,0.22,0.00,18.48,22.24,25.98,15.10,47.08,1045.49,2052.03,3490.36,3126.79,3531.64,599.70,622.16,1.06,0000 0000 0000 0000 000000
2016-01-13 08:35:40,0.14,0.23,0.00,18.51,22.24,26.00,15.22,47.26,1045.53,2052.02,3486.11,3124.53,3528.91,599.99,622.20,1.11,0000 0000 0000 0000 000000
2016-01-13 08:40:41,0.11,0.23,0.00,18.52,22.25,26.01,15.09,47.02,1045.60,2052.03,3482.89,3122.87,3526.75,600.04,622.51,1.16,0000 0000 0000 0000 000000
2016-01-13 08:45:43,0.10,0.24,0.00,18.50,22.27,26.04,15.15,47.17,1045.89,2052.04,3480.07,3121.46,3524.87,600.03,622.67,1.21,0000 0000 0000 0000 000000
2016-01-13 08:50:45,0.08,0.24,0.00,18.50,22.27,26.04,15.15,47.14,1045.91,2052.03,3477.49,3120.24,3523.26,599.91,622.65,1.26,0000 0000 0000 0000 000000
2016-01-13 08:55:46,0.08,0.25,0.00,18.51,22.29,26.10,15.16,47.13,1045.91,2052.05,3475.40,3119.08,3521.72,599.71,622.40,1.31,0000 0000 0000 0000 000000
2016-01-13 09:00:48,0.09,0.25,0.00,18.54,22.30,26.11,15.18,47.31,1045.91,2052.05,3473.15,3117.90,3520.13,599.94,622.55,1.36,0000 0000 0000 0000 000000
2016-01-13 09:05:50,0.09,0.25,0.00,18.54,22.32,26.15,15.20,47.28,1045.94,2052.03,3470.69,3116.58,3518.64,600.12,622.73,1.41,0000 0000 0000 0000 000000
2016-01-13 09:10:51,0.10,0.26,0.00,18.53,22.34,26.21,15.13,47.38,1046.00,2052.02,3468.32,3115.23,3516.76,599.74,622.38,1.46,0000 0000 0000 0000 000000
2016-01-13 09:15:53,0.08,0.27,0.00,18.53,22.36,26.24,15.19,47.26,1046.06,2052.00,3465.99,3113.89,3515.02,600.03,622.73,1.51,0000 0000 0000 0000 000000
2016-01-13 09:20:55,0.09,0.27,0.00,18.57,22.38,26.24,15.14,47.38,1046.37,2052.00,3463.76,3112.66,3513.42,599.61,622.35,1.56,0000 0000 0000 0000 000000
2016-01-13 09:25:56,0.09,0.27,0.00,18.57,22.40,26.25,15.22,47.25,1046.40,2052.00,3461.46,3111.25,3511.65,600.11,622.80,1.61,0000 0000 0000 0000 000000
2016-01-13 09:30:57,0.10,0.28,0.00,18.54,22.42,26.28,15.21,47.35,1046.40,2052.00,3459.21,3109.89,3509.85,599.86,622.66,1.66,0000 0000 0000 0000 000000
2016-01-13 09:35:59,0.10,0.28,0.00,18.54,22.44,26.31,15.17,47.22,1046.41,2051.99,3456.97,3108.53,3507.78,600.01,622.86,1.71,0000 0000 0000 0000 000000
2016-01-13 09:41:00,0.08,0.29,0.00,18.55,22.45,26.33,15.20,47.32,1046.40,2051.97,3454.41,3107.10,3506.09,599.73,622.56,1.76,0000 0000 0000 0000 000000
2016-01-13 09:46:01,0.10,0.29,0.00,18.55,22.47,26.35,15.21,47.34,1046.40,2051.98,3452.14,3105.85,3504.51,599.81,622.73,1.82,0000 0000 0000 0000 000000
2016-01-13 09:51:03,0.09,0.30,0.00,18.53,22.49,26.36,15.23,47.17,1046.40,2051.97,3449.89,3104.65,3502.94,600.01,622.83,1.87,0000 0000 0000 0000 000000
2016-01-13 09:56:04,0.08,0.30,0.00,18.49,22.49,26.39,15.15,47.10,1046.40,2051.97,3447.83,3103.48,3501.50,599.63,622.57,1.92,0000 0000 0000 0000 000000
2016-01-13 10:01:06,0.08,0.31,0.00,18.50,22.50,26.36,15.25,47.20,1046.41,2051.96,3445.61,3102.23,3499.85,600.08,623.08,1.97,0000 0000 0000 0000 000000
2016-01-13 10:06:07,0.09,0.31,0.00,18.52,22.52,26.39,15.23,47.14,1046.40,2051.96,3443.24,3100.96,3498.23,600.15,623.08,2.02,0000 0000 0000 0000 000000
2016-01-13 10:11:09,0.10,0.32,0.00,18.51,22.52,26.40,15.19,47.25,1046.42,2051.96,3441.03,3099.64,3496.46,599.97,622.85,2.07,0000 0000 0000 0000 000000
2016-01-13 10:16:10,0.07,0.32,0.00,18.51,22.53,26.40,15.23,47.16,1046.41,2051.77,3438.68,3098.29,3494.63,600.10,623.12,2.12,0000 0000 0000 0000 000000
2016-01-13 10:21:12,0.10,0.33,0.00,18.48,22.54,26.37,15.24,47.17,1046.48,2051.74,3436.50,3096.93,3492.73,600.27,623.33,2.17,0000 0000 0000 0000 000000
2016-01-13 10:26:13,0.08,0.33,0.00,18.47,22.54,26.37,15.21,47.15,1046.82,2051.47,3433.79,3095.44,3490.38,599.96,623.30,2.22,0000 0000 0000 0000 000000
2016-01-13 10:31:15,0.09,0.33,0.00,18.46,22.54,26.39,15.26,47.10,1046.79,2051.20,3430.83,3093.94,3488.56,600.38,623.73,2.27,0000 0000 0000 0000 000000
2016-01-13 10:36:16,0.10,0.34,0.00,18.41,22.54,26.35,15.23,47.25,1046.85,2051.22,3428.33,3092.54,3486.56,599.84,623.31,2.32,0000 0000 0000 0000 000000
2016-01-13 10:41:18,0.08,0.34,0.00,18.42,22.54,26.35,15.19,47.27,1046.84,2051.17,3425.92,3091.26,3484.96,600.02,623.49,2.37,0000 0000 0000 0000 000000
2016-01-13 10:46:19,0.09,0.35,0.00,18.46,22.53,26.34,15.16,47.14,1046.86,2051.18,3423.64,3089.96,3483.51,599.72,623.02,2.42,0000 0000 0000 0000 000000
2016-01-13 10:51:20,0.11,0.35,0.00,18.42,22.52,26.35,15.22,47.34,1046.88,2051.34,3421.33,3088.58,3481.81,599.98,623.45,2.47,0000 0000 0000 0000 000000
2016-01-13 10:56:22,0.08,0.36,0.00,18.41,22.52,26.32,15.13,47.15,1046.89,2051.30,3418.99,3087.27,3480.10,599.83,623.28,2.52,0000 0000 0000 0000 000000
2016-01-13 11:01:23,0.11,0.36,0.00,18.38,22.52,26.33,15.13,47.08,1046.90,2051.47,3416.72,3086.03,3478.67,599.74,623.17,2.57,0000 0000 0000 0000 000000
2016-01-13 11:06:25,0.10,0.37,0.00,18.37,22.51,26.32,15.16,47.23,1046.91,2051.64,3414.55,3084.72,3477.07,599.77,623.35,2.62,0000 0000 0000 0000 000000
2016-01-13 11:11:26,0.12,0.38,0.00,18.35,22.50,26.30,15.19,47.17,1046.95,2051.84,3412.31,3083.47,3475.41,599.83,623.47,2.67,0000 0000 0000 0000 000000
2016-01-13 11:16:28,0.09,0.38,0.00,18.35,22.49,26.28,15.15,47.10,1046.95,2051.86,3410.11,3082.11,3473.78,599.60,623.26,2.72,0000 0000 0000 0000 000000
2016-01-13 11:21:29,0.07,0.38,0.00,18.32,22.49,26.25,15.19,47.04,1046.93,2051.69,3407.93,3080.76,3472.34,599.90,623.52,2.77,0000 0000 0000 0000 000000
2016-01-13 11:26:30,0.12,0.39,0.00,18.31,22.49,26.31,15.18,47.09,1046.91,2051.76,3405.64,3079.36,3470.43,600.32,624.02,2.82,0000 0000 0000 0000 000000
2016-01-13 11:31:31,0.17,0.40,0.00,18.29,22.49,26.26,15.27,47.20,1046.93,2051.74,3402.06,3077.11,3467.58,600.27,623.88,2.87,0000 0000 0000 0000 000000
2016-01-13 11:36:33,0.13,0.41,0.00,18.27,22.47,26.27,15.17,47.13,1046.94,2051.76,3398.53,3074.96,3465.03,599.72,623.47,2.92,0000 0000 0000 0000 000000
2016-01-13 11:41:34,0.12,0.41,0.00,18.26,22.47,26.26,15.19,47.14,1047.15,2051.64,3395.31,3073.06,3462.78,599.89,623.88,2.97,0000 0000 0000 0000 000000
2016-01-13 11:46:36,0.12,0.42,0.00,18.24,22.46,26.21,15.11,47.13,1047.28,2051.75,3392.57,3071.47,3460.79,599.81,623.75,3.02,0000 0000 0000 0000 000000
2016-01-13 11:51:37,0.08,0.42,0.00,18.22,22.44,26.25,15.22,47.01,1047.25,2051.88,3390.66,3070.23,3459.01,599.66,623.73,3.07,0000 0000 0000 0000 000000
2016-01-13 11:56:39,0.09,0.43,0.00,18.21,22.43,26.22,15.20,47.04,1047.06,2051.76,3388.36,3068.93,3457.55,600.10,624.08,3.12,0000 0000 0000 0000 000000
2016-01-13 12:01:40,0.07,0.43,0.00,18.19,22.42,26.18,15.21,46.94,1047.20,2051.78,3386.23,3067.80,3456.22,599.82,623.91,3.17,0000 0000 0000 0000 000000
2016-01-13 12:06:41,0.07,0.44,0.00,18.17,22.40,26.11,15.28,47.12,1047.22,2051.92,3384.61,3066.94,3455.17,599.96,624.06,3.22,0000 0000 0000 0000 000000
2016-01-13 12:11:43,0.06,0.44,0.00,18.17,22.38,26.16,15.27,47.25,1047.28,2051.97,3383.12,3066.07,3454.33,600.09,624.20,3.27,0000 0000 0000 0000 000000
2016-01-13 12:16:44,0.06,0.44,0.00,18.15,22.37,26.12,15.22,47.22,1047.06,2051.98,3381.67,3065.25,3453.38,599.89,624.11,3.32,0000 0000 0000 0000 000000
2016-01-13 12:21:45,0.06,0.45,0.00,18.14,22.34,26.14,15.16,47.19,1046.95,2051.98,3380.10,3064.41,3452.31,599.85,623.88,3.37,0000 0000 0000 0000 000000
2016-01-13 12:26:47,0.06,0.45,0.00,18.13,22.34,26.09,15.26,47.08,1046.94,2051.99,3378.37,3063.53,3451.21,600.06,624.06,3.42,0000 0000 0000 0000 000000
2016-01-13 12:31:48,0.07,0.45,0.00,18.10,22.32,26.08,15.31,47.31,1046.94,2051.99,3376.42,3062.45,3449.99,600.36,624.49,3.47,0000 0000 0000 0000 000000
2016-01-13 12:36:49,0.08,0.46,0.00,18.10,22.31,26.04,15.17,47.18,1046.99,2051.99,3374.41,3061.30,3448.63,599.94,624.11,3.52,0000 0000 0000 0000 000000
2016-01-13 12:41:51,0.08,0.46,0.00,18.09,22.29,26.03,15.19,47.16,1047.01,2052.00,3372.41,3060.08,3447.28,599.84,624.02,3.57,0000 0000 0000 0000 000000
2016-01-13 12:46:52,0.10,0.47,0.00,18.04,22.29,26.07,15.16,47.16,1047.02,2052.01,3370.20,3058.83,3445.77,599.29,623.60,3.62,0000 0000 0000 0000 000000
2016-01-13 12:51:54,0.07,0.47,0.00,18.05,22.28,26.06,15.20,47.24,1046.97,2052.02,3368.42,3057.74,3444.50,599.99,624.34,3.67,0000 0000 0000 0000 000000
2016-01-13 12:56:55,0.13,0.48,0.00,18.02,22.27,26.02,15.22,47.13,1047.05,2052.01,3366.13,3056.07,3442.01,600.08,624.42,3.72,0000 0000 0000 0000 000000
2016-01-13 13:01:57,0.15,0.48,0.00,18.00,22.27,26.04,15.26,47.21,1046.98,2052.01,3362.60,3053.78,3439.40,600.37,624.76,3.77,0000 0000 0000 0000 000000
2016-01-13 13:06:58,0.15,0.49,0.00,17.99,22.26,25.99,15.24,47.25,1046.93,2052.02,3358.84,3051.67,3437.09,599.94,624.31,3.82,0000 0000 0000 0000 000000
2016-01-13 13:12:00,0.14,0.50,0.00,17.97,22.24,25.97,15.26,47.22,1046.90,2052.04,3355.11,3049.48,3434.66,599.84,624.22,3.87,0000 0000 0000 0000 000000
2016-01-13 13:17:01,0.14,0.51,0.00,17.91,22.24,25.97,15.33,47.17,1046.89,2052.06,3351.81,3047.40,3432.18,600.14,624.69,3.93,0000 0000 0000 0000 000000
2016-01-13 13:22:03,0.13,0.51,0.00,17.86,22.22,25.99,15.37,47.36,1046.89,2052.04,3348.52,3045.52,3429.99,600.36,625.03,3.98,0000 0000 0000 0000 000000
2016-01-13 13:27:04,0.10,0.52,0.00,17.82,22.20,25.93,15.20,47.21,1046.89,2052.14,3346.03,3044.09,3428.33,599.91,624.65,4.03,0000 0000 0000 0000 000000
2016-01-13 13:32:05,0.10,0.52,0.00,17.84,22.19,25.93,15.31,47.33,1046.89,2052.28,3343.96,3042.90,3426.86,600.11,624.78,4.08,0000 0000 0000 0000 000000
2016-01-13 13:37:06,0.10,0.53,0.00,17.82,22.17,25.88,15.26,47.33,1046.89,2052.55,3342.01,3041.75,3425.45,599.66,624.36,4.13,0000 0000 0000 0000 000000
2016-01-13 13:42:08,0.10,0.54,0.00,17.83,22.15,25.85,15.25,47.15,1046.89,2052.82,3340.00,3040.74,3424.20,599.79,624.49,4.18,0000 0000 0000 0000 000000
2016-01-13 13:47:09,0.08,0.54,0.00,17.81,22.13,25.82,15.23,47.19,1046.89,2052.96,3338.21,3039.76,3422.86,599.86,624.34,4.23,0000 0000 0000 0000 000000
2016-01-13 13:52:10,0.08,0.54,0.00,17.78,22.12,25.84,15.27,47.12,1046.90,2052.97,3336.41,3038.60,3421.51,600.16,624.94,4.28,0000 0000 0000 0000 000000
2016-01-13 13:57:11,0.07,0.55,0.00,17.74,22.10,25.82,15.25,47.04,1046.90,2052.97,3334.68,3037.62,3420.31,599.75,624.54,4.33,0000 0000 0000 0000 000000